| time (UTC) | temp F | wind direction | speed knots | gust knots | rain 1hr in | rain 24hr in | rain mn in | humidity % | barometer mb |
| 20260507194503 | 73 | 219 | 3.5 | 10.4 | 0.00 | 0.00 | 0.00 | 33 | 1015.8 |
| 20260507193005 | 73 | 189 | 2.6 | 9.6 | 0.00 | 0.00 | 0.00 | 37 | 1015.8 |
| 20260507191507 | 72 | 163 | 3.5 | 8.7 | 0.00 | 0.00 | 0.00 | 35 | 1015.9 |
| 20260507184511 | 71 | 204 | 1.7 | 7.8 | 0.00 | 0.00 | 0.00 | 37 | 1016.0 |
| 20260507183008 | 71 | 323 | 0.0 | 7.0 | 0.00 | 0.00 | 0.00 | 41 | 1016.1 |
| 20260507181510 | 70 | 234 | 0.0 | 7.0 | 0.00 | 0.00 | 0.00 | 42 | 1016.1 |
| 20260507180004 | 70 | 177 | 1.7 | 7.0 | 0.00 | 0.00 | 0.00 | 43 | 1016.2 |
| 20260507173021 | 68 | 152 | 2.6 | 6.1 | 0.00 | 0.00 | 0.00 | 45 | 1016.3 |
| 20260507171505 | 68 | 133 | 1.7 | 8.7 | 0.00 | 0.00 | 0.00 | 46 | 1016.3 |
| 20260507170010 | 67 | 292 | 0.0 | 6.1 | 0.00 | 0.00 | 0.00 | 49 | 1016.5 |
| 20260507163007 | 65 | 173 | 2.6 | 9.6 | 0.00 | 0.00 | 0.00 | 54 | 1016.4 |
| 20260507161525 | 64 | 189 | 5.2 | 9.6 | 0.00 | 0.00 | 0.00 | 53 | 1016.4 |
| 20260507160013 | 63 | 144 | 3.5 | 7.0 | 0.00 | 0.00 | 0.00 | 57 | 1016.3 |
| 20260507153018 | 60 | 198 | 3.5 | 10.4 | 0.00 | 0.00 | 0.00 | 64 | 1016.3 |
| 20260507151521 | 59 | 140 | 4.3 | 10.4 | 0.00 | 0.00 | 0.00 | 66 | 1016.2 |
| 20260507150019 | 58 | 195 | 4.3 | 9.6 | 0.00 | 0.00 | 0.00 | 68 | 1016.1 |
| 20260507144526 | 57 | 216 | 4.3 | 7.8 | 0.00 | 0.00 | 0.00 | 69 | 1016.1 |
| 20260507141522 | 55 | 177 | 3.5 | 10.4 | 0.00 | 0.00 | 0.00 | 73 | 1015.9 |
| 20260507140032 | 55 | 142 | 1.7 | 8.7 | 0.00 | 0.00 | 0.00 | 74 | 1015.9 |
| 20260507134514 | 54 | 175 | 4.3 | 9.6 | 0.00 | 0.00 | 0.00 | 76 | 1015.6 |
| 20260507133011 | 54 | 173 | 4.3 | 8.7 | 0.00 | 0.00 | 0.00 | 77 | 1015.4 |
| 20260507131530 | 54 | 115 | 3.5 | 9.6 | 0.00 | 0.00 | 0.00 | 77 | 1015.3 |
| 20260507124509 | 54 | 155 | 3.5 | 8.7 | 0.00 | 0.00 | 0.00 | 78 | 1015.2 |
| 20260507121516 | 55 | 142 | 4.3 | 11.3 | 0.00 | 0.00 | 0.00 | 75 | 1014.8 |
| 20260507113007 | 56 | 155 | 4.3 | 9.6 | 0.00 | 0.00 | 0.00 | 71 | 1014.9 |
| 20260507110003 | 56 | 198 | 6.1 | 10.4 | 0.00 | 0.00 | 0.00 | 69 | 1014.8 |
| 20260507104523 | 56 | 168 | 2.6 | 7.0 | 0.00 | 0.00 | 0.00 | 70 | 1015.0 |
| 20260507103009 | 56 | 196 | 4.3 | 9.6 | 0.00 | 0.00 | 0.00 | 71 | 1014.9 |
| 20260507101511 | 56 | 74 | 3.5 | 8.7 | 0.00 | 0.00 | 0.00 | 72 | 1014.8 |
| 20260507100029 | 56 | 144 | 3.5 | 11.3 | 0.00 | 0.00 | 0.00 | 71 | 1014.7 |
| 20260507094520 | 57 | 217 | 4.3 | 12.2 | 0.00 | 0.00 | 0.00 | 70 | 1014.5 |
| 20260507093008 | 56 | 174 | 4.3 | 10.4 | 0.00 | 0.00 | 0.00 | 70 | 1014.6 |
| 20260507091508 | 57 | 166 | 3.5 | 7.0 | 0.00 | 0.00 | 0.00 | 70 | 1014.5 |
| 20260507090016 | 57 | 121 | 4.3 | 11.3 | 0.00 | 0.00 | 0.00 | 69 | 1014.6 |
| 20260507084543 | 57 | 202 | 1.7 | 7.0 | 0.00 | 0.00 | 0.00 | 69 | 1014.7 |
| 20260507083023 | 57 | 177 | 0.0 | 2.6 | 0.00 | 0.00 | 0.00 | 69 | 1014.9 |
| 20260507081511 | 57 | 210 | 1.7 | 9.6 | 0.00 | 0.00 | 0.00 | 68 | 1014.7 |
| 20260507074514 | 58 | 306 | 0.0 | 7.0 | 0.00 | 0.00 | 0.00 | 66 | 1014.6 |
| 20260507073026 | 59 | 201 | 5.2 | 13.0 | 0.00 | 0.00 | 0.00 | 66 | 1014.1 |
| 20260507071527 | 59 | 163 | 7.0 | 12.2 | 0.00 | 0.00 | 0.00 | 65 | 1013.8 |
| 20260507070012 | 60 | 167 | 6.1 | 14.8 | 0.00 | 0.00 | 0.00 | 64 | 1013.6 |
| 20260507064508 | 60 | 182 | 6.1 | 12.2 | 0.00 | 0.00 | 0.00 | 63 | 1013.5 |
| 20260507063003 | 61 | 217 | 7.0 | 17.4 | 0.00 | 0.00 | 0.00 | 62 | 1013.4 |
| 20260507061505 | 62 | 188 | 7.0 | 15.6 | 0.00 | 0.00 | 0.00 | 60 | 1013.4 |
| 20260507060022 | 63 | 194 | 6.1 | 13.9 | 0.00 | 0.00 | 0.00 | 59 | 1013.8 |
| 20260507054507 | 63 | 167 | 6.1 | 15.6 | 0.00 | 0.00 | 0.00 | 58 | 1013.7 |
| 20260507053006 | 63 | 129 | 6.1 | 13.0 | 0.00 | 0.00 | 0.00 | 57 | 1013.8 |
| 20260507051506 | 64 | 185 | 4.3 | 13.0 | 0.00 | 0.00 | 0.00 | 56 | 1013.8 |
| 20260507044509 | 66 | 145 | 1.7 | 4.3 | 0.00 | 0.00 | 0.00 | 54 | 1013.9 |
| 20260507043012 | 67 | 148 | 2.6 | 5.2 | 0.00 | 0.00 | 0.00 | 48 | 1013.9 |
| 20260507041508 | 69 | 182 | 1.7 | 4.3 | 0.00 | 0.00 | 0.00 | 38 | 1013.8 |
| 20260507040016 | 70 | 145 | 1.7 | 4.3 | 0.00 | 0.00 | 0.00 | 35 | 1013.7 |
| 20260507031522 | 73 | 196 | 0.0 | 2.6 | 0.00 | 0.00 | 0.00 | 36 | 1012.9 |
| 20260507024520 | 74 | 196 | 0.0 | 2.6 | 0.00 | 0.00 | 0.00 | 35 | 1012.6 |
| 20260507021531 | 75 | 297 | 0.0 | 2.6 | 0.00 | 0.00 | 0.00 | 36 | 1012.4 |
| 20260507020023 | 76 | 297 | 0.0 | 0.0 | 0.00 | 0.00 | 0.00 | 45 | 1012.1 |
| 20260507014525 | 76 | 297 | 0.0 | 3.5 | 0.00 | 0.00 | 0.00 | 44 | 1012.1 |
| 20260507011516 | 76 | 158 | 5.2 | 14.8 | 0.00 | 0.00 | 0.00 | 43 | 1011.5 |
| 20260507010029 | 77 | 166 | 6.1 | 14.8 | 0.00 | 0.00 | 0.00 | 43 | 1011.5 |
| 20260507003002 | 78 | 171 | 7.0 | 13.0 | 0.00 | 0.00 | 0.00 | 42 | 1011.4 |
| 20260507001502 | 78 | 224 | 3.5 | 13.0 | 0.00 | 0.00 | 0.00 | 42 | 1011.4 |
| 20260507000004 | 79 | 172 | 2.6 | 13.9 | 0.00 | 0.00 | 0.00 | 41 | 1011.4 |
| 20260506234504 | 79 | 160 | 7.0 | 13.9 | 0.00 | 0.00 | 0.00 | 39 | 1011.2 |
| 20260506233002 | 79 | 165 | 7.0 | 17.4 | 0.00 | 0.00 | 0.00 | 39 | 1011.4 |
| 20260506231503 | 79 | 190 | 6.1 | 15.6 | 0.00 | 0.00 | 0.00 | 41 | 1011.5 |
| 20260506230002 | 80 | 178 | 5.2 | 14.8 | 0.00 | 0.00 | 0.00 | 40 | 1011.6 |
| 20260506224504 | 80 | 96 | 6.1 | 13.0 | 0.00 | 0.00 | 0.00 | 39 | 1011.7 |
| 20260506223007 | 80 | 166 | 4.3 | 15.6 | 0.00 | 0.00 | 0.00 | 37 | 1011.9 |
| 20260506220003 | 80 | 66 | 5.2 | 13.0 | 0.00 | 0.00 | 0.00 | 36 | 1012.3 |
| 20260506214503 | 80 | 249 | 3.5 | 12.2 | 0.00 | 0.00 | 0.00 | 36 | 1012.4 |
| 20260506213007 | 80 | 184 | 4.3 | 14.8 | 0.00 | 0.00 | 0.00 | 36 | 1012.7 |
| 20260506211504 | 80 | 217 | 6.1 | 13.9 | 0.00 | 0.00 | 0.00 | 36 | 1012.9 |
| 20260506204507 | 80 | 171 | 4.3 | 13.0 | 0.00 | 0.00 | 0.00 | 38 | 1013.2 |
| 20260506203013 | 80 | 170 | 6.1 | 11.3 | 0.00 | 0.00 | 0.00 | 37 | 1013.2 |
| 20260506200007 | 79 | 216 | 3.5 | 13.9 | 0.00 | 0.00 | 0.00 | 40 | 1013.3 |